TimeEST,TemperatureF,Dew PointF,Humidity,Sea Level PressureIn,VisibilityMPH,Wind Direction,Wind SpeedMPH,Gust SpeedMPH,PrecipitationIn,Events,Conditions,WindDirDegrees,DateUTC
12:53 AM,37.0,25.0,62,30.20,10.0,SSW,5.8,-,N/A,,Overcast,210,2013-01-06 05:53:00
1:53 AM,37.0,25.0,62,30.19,10.0,SSW,3.5,-,N/A,,Overcast,210,2013-01-06 06:53:00
2:53 AM,37.0,25.0,62,30.18,10.0,South,5.8,-,N/A,,Overcast,190,2013-01-06 07:53:00
3:53 AM,36.0,26.1,67,30.17,10.0,South,4.6,-,N/A,,Overcast,190,2013-01-06 08:53:00
4:53 AM,36.0,25.0,64,30.15,-9999.0,North,-9999.0,-,N/A,,Overcast,0,2013-01-06 09:53:00
5:53 AM,-9999,-9999,N/A,30.12,-9999.0,North,-9999.0,-,N/A,,Overcast,0,2013-01-06 10:53:00
6:53 AM,-9999,-9999,N/A,30.12,-9999.0,North,-9999.0,-,N/A,,Overcast,0,2013-01-06 11:53:00
6:55 AM,-9999,-9999,N/A,30.12,10.0,SSW,5.8,-,N/A,,Overcast,210,2013-01-06 11:55:00
7:53 AM,-9999,-9999,N/A,30.12,10.0,SSW,5.8,-,N/A,,Overcast,210,2013-01-06 12:53:00
8:53 AM,-9999,-9999,N/A,30.12,10.0,SSW,5.8,-,N/A,,Overcast,210,2013-01-06 13:53:00
9:53 AM,-9999,-9999,N/A,30.13,10.0,WSW,11.5,-,N/A,,Overcast,240,2013-01-06 14:53:00
10:53 AM,-9999,-9999,N/A,30.12,10.0,WSW,11.5,-,N/A,,Overcast,240,2013-01-06 15:53:00
11:53 AM,-9999,-9999,N/A,30.09,10.0,WNW,17.3,-,N/A,,Overcast,290,2013-01-06 16:53:00
12:53 PM,-9999,-9999,N/A,30.06,10.0,WSW,11.5,-,N/A,,Overcast,250,2013-01-06 17:53:00
1:53 PM,-9999,-9999,N/A,30.05,-9999.0,North,-9999.0,-,N/A,,Overcast,0,2013-01-06 18:53:00
2:53 PM,41.0,28.9,62,30.07,10.0,SSW,4.6,-,N/A,,Overcast,210,2013-01-06 19:53:00
3:53 PM,41.0,28.9,62,30.09,10.0,SSW,6.9,-,N/A,,Overcast,210,2013-01-06 20:53:00
4:53 PM,41.0,28.9,62,30.10,10.0,SSW,5.8,-,N/A,,Overcast,210,2013-01-06 21:53:00
5:53 PM,41.0,30.0,65,30.10,10.0,WSW,9.2,-,N/A,,Overcast,250,2013-01-06 22:53:00
6:32 PM,37.4,32.0,81,30.14,7.0,WNW,11.5,26.5,0.00,,Overcast,290,2013-01-06 23:32:00
6:53 PM,37.0,32.0,82,30.15,10.0,West,9.2,-,0.00,,Overcast,280,2013-01-06 23:53:00
7:43 PM,35.6,30.2,81,30.18,9.0,West,12.7,24.2,N/A,,Overcast,280,2013-01-07 00:43:00
7:53 PM,36.0,30.9,82,30.18,10.0,WNW,15.0,25.3,N/A,,Overcast,290,2013-01-07 00:53:00
8:48 PM,33.8,28.4,81,30.21,10.0,West,9.2,19.6,N/A,,Overcast,270,2013-01-07 01:48:00
9:53 PM,33.1,26.1,75,30.25,8.0,West,12.7,-,N/A,,Overcast,260,2013-01-07 02:53:00
10:25 PM,32.0,26.6,80,30.27,7.0,West,5.8,-,N/A,,Overcast,280,2013-01-07 03:25:00
10:53 PM,32.0,27.0,82,30.29,6.0,WNW,13.8,18.4,N/A,,Haze,290,2013-01-07 03:53:00
11:51 PM,30.2,24.8,80,30.32,6.0,West,8.1,-,N/A,,Haze,270,2013-01-07 04:51:00
11:53 PM,30.0,24.1,79,30.32,6.0,West,6.9,-,N/A,,Haze,260,2013-01-07 04:53:00